This demonstration page uses our WeatherBlox Daily Observations layout. Learn more.

Left ArrowRight Arrow

Hourly Observations for July 2, 2022

Temp ( °F °C ) Dew Point ( °F °C ) Humidity (%) Winds ( mph kmh ) Pressure ( in mb ) Visibility ( mi km ) Precip ( " mm )
12:53 am 00:53 Clear 85 29.4 55 12.8 36 36 SE 12 19 29.78 1009 10 16 0.00 0.00
1:53 am 01:53 Clear 83 28.3 55 12.8 38 38 SSE 8 13 29.78 1009 10 16 0.00 0.00
2:53 am 02:53 Partly Cloudy 81 27.2 55 12.8 41 41 SE 6 9 29.78 1008 10 16 0.00 0.00
3:53 am 03:53 Mostly Clear 80 26.7 56 13.3 44 44 SSE 6 9 29.77 1008 10 16 0.00 0.00
4:53 am 04:53 Clear 79 26.1 55 12.8 44 44 SE 7 11 29.78 1008 10 16 0.00 0.00
5:53 am 05:53 Clear 78 25.6 56 13.3 47 47 SE 9 15 29.78 1009 10 16 0.00 0.00
6:53 am 06:53 Sunny 77 25 57 13.9 50 50 ESE 9 15 29.78 1009 10 16 0.00 0.00
7:53 am 07:53 Sunny 78 25.6 58 14.4 50 50 ESE 13 20 29.80 1009 10 16 0.00 0.00
8:53 am 08:53 Sunny 81 27.2 60 15.6 49 49 SE 16 26 29.82 1010 10 16 0.00 0.00
9:53 am 09:53 Sunny 85 29.4 60 15.6 43 43 SSE 15 24 29.82 1010 10 16 0.00 0.00
10:53 am 10:53 Sunny 89 31.7 59 15 36 36 SE 7 11 29.81 1010 10 16 0.00 0.00
11:53 am 11:53 Sunny 92 33.3 56 13.3 30 30 SSE 8 13 29.81 1009 10 16 0.00 0.00
12:53 pm 12:53 Sunny 97 36.1 46 7.8 17 17 SE 15 24 29.80 1009 10 16 0.00 0.00
1:53 pm 13:53 Sunny 99 37.2 45 7.2 16 16 SSE 14 22 29.78 1008 10 16 0.00 0.00
2:53 pm 14:53 Sunny 100 37.8 41 5 13 13 SSE 15 24 29.75 1008 10 16 0.00 0.00
3:53 pm 15:53 Sunny 98 36.7 38 3.3 12 12 Calm 29.74 1007 10 16 0.00 0.00
4:53 pm 16:53 Sunny 101 38.3 37 2.8 11 11 SE 14 22 29.72 1006 10 16 0.00 0.00
5:53 pm 17:53 Sunny 100 37.8 38 3.3 12 12 ESE 8 13 29.70 1006 10 16 0.00 0.00
6:53 pm 18:53 Sunny 100 37.8 35 1.7 10 10 E 15 24 29.68 1005 10 16 0.00 0.00
7:53 pm 19:53 Sunny 99 37.2 30 -1.1 9 9 ESE 13 20 29.68 1005 10 16 0.00 0.00
8:53 pm 20:53 Sunny 93 33.9 52 11.1 25 25 SSE 26 43 29.72 1006 10 16 0.00 0.00
9:53 pm 21:53 Clear 87 30.6 55 12.8 34 34 SE 23 37 29.77 1008 10 16 0.00 0.00
10:53 pm 22:53 Clear 84 28.9 57 13.9 40 40 SE 17 28 29.79 1009 10 16 0.00 0.00
11:53 pm 23:53 Clear 82 27.8 58 14.4 44 44 SSE 13 20 29.80 1009 10 16 0.00 0.00

Powered by AerisWeather